Location: Newark
(48.2308°N, 120.8549°W)
Time: 13:47:06
(UTC+00:00)

Transit 2A Rocket - Pass Details

Date: 30 May 2020
Orbit: 584 x 919 km, 66.7° (Epoch: 07 July)

Event Time Altitude Azimuth Distance (km) Brightness Sun altitude
Rises 13:06:42 0° 325° (NW) 3,439 8.3 7.6°
Reaches altitude 10° 13:09:36 10° 339° (NNW) 2,543 7.8 8.1°
Maximum altitude 13:14:27 25° 33° (NNE) 1,747 7.9 8.8°
Drops below altitude 10° 13:19:25 10° 88° (E) 2,614 9.4 9.6°
Sets 13:22:26 0° 101° (E) 3,555 9.5 10.0°
